Temp
7 7 7 7 7 7 7 7 7 7 7 7 7 7 7 7 7 7 7 7 7 7 7 6 6 6 6 6 6 6 6 6 6 6 6 6 5 5 5 5 5 5 5 5 5 5 5 5 5 4 4 4 5 5 5 5 5 5 5 5 4 4 4 4 4 5 5 5 5 5 5 5 5 5 5 4 4 4 4 4 4 5 5 5 5 5
6 6 6 6 6 6 6 6 6 6 6 6 6 6 6 6 6 6 6 6 6 6 6 6 5 5 5 5 5 5 5 5 5 5 5 5 5 4 4 4 4 4 4 4 4 4 4 4 4 4 4 4 4 4 5 5 5 5 4 4 4 4 4 4 4 4 4 4 4 4 4 4 4 4 4 4 4 4 4 4 4 4 4 4 4 5
6 5 5 5 5 5 5 5 5 5 4 5 5 5 5 5 5 5 5 5 5 5 5 5 5 4 4 4 4 4 4 4 4 4 4 4 4 4 4 4 4 4 4 4 4 4 4 4 4 4 4 4 4 4 4 4 4 4 4 4 4 4 4 4 4 4 4 4 4 4 4 4 4 4 4 4 4 4 4 4 4 4 4 4 4 4
5 5 4 4 4 4 4 4 4 4 4 4 4 4 4 4 4 4 4 4 4 4 4 4 4 4 4 4 4 3 3 3 3 3 3 4 4 4 4 4 4 4 4 4 4 4 4 4 4 4 4 4 4 4 4 4 4 4 4 4 4 4 4 4 4 3 3 3 3 3 3 3 3 3 3 3 3 3 3 3 3 4 4 4 4 4
4 4 4 4 4 4 4 4 4 4 4 4 4 4 4 4 4 4 4 3 3 3 3 3 3 3 3 3 3 3 3 3 3 3 3 3 3 3 3 4 4 4 4 4 4 4 4 4 4 4 4 4 4 4 4 4 4 4 4 4 4 4 3 3 3 3 3 3 3 3 3 3 3 3 3 3 3 3 3 3 3 3 3 3 4 4
4 4 4 4 4 4 4 4 4 4 4 4 4 4 3 3 3 3 3 3 3 3 3 3 3 3 3 3 3 3 3 3 3 3 3 3 3 4 4 4 4 4 4 4 4 4 4 4 4 4 4 4 4 4 4 4 4 4 3 3 3 3 3 3 3 3 3 3 2 2 2 2 2 2 2 2 2 3 3 3 3 3 3 3 3 3
3 4 4 4 4 4 4 4 4 4 4 3 3 3 3 3 3 3 3 3 3 3 3 3 3 3 4 4 4 4 4 4 4 4 3 4 4 4 4 4 4 4 4 4 4 4 4 3 3 3 3 3 3 3 3 3 3 3 3 3 3 3 3 3 3 3 2 2 2 2 2 2 2 2 2 2 2 2 2 2 2 3 3 3 3 3
4 4 4 4 4 4 4 4 4 4 4 3 3 3 3 3 3 3 3 3 3 3 3 3 3 3 3 4 4 3 3 3 3 3 3 3 4 4 3 3 3 3 3 3 3 3 3 3 3 3 3 3 3 3 3 3 3 3 3 3 3 3 3 2 2 2 2 2 2 2 2 2 2 2 2 2 2 2 2 2 2 2 2 3 3 3
5 4 4 4 4 4 3 3 3 3 3 3 3 3 3 3 3 2 2 3 3 3 3 3 2 3 3 3 3 3 3 3 3 3 3 3 3 3 3 3 3 3 2 2 2 2 2 2 2 2 3 3 3 3 3 3 3 3 3 2 2 2 2 2 2 2 2 2 2 2 2 2 2 2 2 2 2 2 2 2 2 2 2 2 2 2
5 4 4 4 4 4 3 3 3 3 3 3 3 3 3 3 2 2 2 2 3 3 3 3 3 3 3 3 3 3 3 3 3 3 3 3 3 3 2 2 2 2 2 2 3 3 3 3 3 3 3 3 3 3 3 3 3 3 3 3 2 2 2 2 1 1 1 1 1 1 1 1 1 1 1 1 1 1 1 1 2 2 2 2 2 2
4 4 4 4 3 3 3 3 3 3 3 3 3 3 3 3 3 3 2 2 2 3 3 3 3 3 3 3 3 3 3 3 3 3 3 3 2 2 2 2 2 2 2 2 3 3 3 3 3 3 3 3 3 3 3 3 3 3 3 3 2 2 2 1 1 1 1 1 1 1 1 1 1 1 1 1 1 1 1 1 1 1 1 1 1 1
4 4 4 4 3 3 3 3 3 3 3 3 3 3 3 3 3 3 3 3 3 3 3 2 2 2 3 3 3 3 3 3 3 2 2 2 2 2 2 2 2 2 2 2 2 3 3 3 3 3 3 3 3 3 3 3 2 2 2 2 2 2 1 1 1 1 1 1 1 1 1 1 1 1 1 1 1 1 1 1 1 1 1 1 1 1
4 4 4 4 3 3 3 3 3 3 3 3 3 3 3 3 3 3 3 3 3 3 3 3 2 2 2 2 3 3 3 2 2 2 2 2 2 2 2 2 2 2 2 2 2 2 2 2 2 2 2 2 2 2 2 2 2 2 2 1 1 1 1 1 1 1 1 1 1 0 0 0 0 0 0 0 0 0 0 0 1 1 1 1 1 1
4 4 4 4 3 3 3 3 3 3 3 3 3 3 3 3 3 3 3 3 3 3 3 3 2 2 2 3 3 2 2 2 2 2 2 2 2 2 2 2 2 1 1 1 1 1 2 2 2 1 1 1 2 2 2 1 1 1 1 1 1 1 1 1 1 1 1 0 0 0 0 0 0 0 0 0 0 0 0 0 0 0 0 1 1 1
4 4 4 4 4 3 3 3 3 3 3 3 3 3 2 3 3 3 3 2 2 2 2 2 2 2 2 3 2 2 2 2 2 2 2 2 2 2 1 1 1 1 1 1 1 1 1 1 1 1 1 1 1 1 1 1 1 1 1 1 1 1 1 1 1 1 0 0 0 0 0 0 -0 -0 -0 -0 -0 -0 0 0 0 0 0 0 0 0
5 4 4 4 4 4 4 4 4 3 3 3 2 2 2 2 2 2 2 2 2 2 2 2 2 2 2 2 2 2 2 2 1 1 1 1 1 1 1 1 1 1 1 1 1 1 1 1 1 1 1 1 1 1 1 1 1 1 1 1 1 1 1 1 0 0 0 0 0 0 0 -0 -0 -0 -0 -0 -0 -0 -0 -0 -0 -0 0 0 0 0
4 4 4 4 4 4 3 3 3 3 2 2 2 2 2 2 2 2 2 2 2 2 2 2 1 1 1 2 2 2 2 1 1 1 1 1 1 1 1 1 0 0 1 1 1 1 1 1 1 1 1 1 1 1 1 1 1 1 1 1 1 1 0 0 0 0 0 0 0 0 0 -0 -0 -0 -0 -0 -0 -0 -0 -0 -0 -0 -0 0 0 0
3 4 4 4 3 3 3 3 2 2 2 2 2 2 2 2 2 2 1 1 1 1 1 1 1 1 1 2 2 1 1 1 0 -0 -0 -0 0 1 1 0 0 0 0 0 1 1 1 1 1 1 1 1 1 1 1 1 1 1 1 1 1 1 1 0 0 0 0 0 0 0 0 -0 -0 -0 -0 -0 -0 -0 -0 -0 -0 -0 -0 0 0 0
3 3 3 3 3 3 2 2 2 2 2 2 2 2 2 1 1 1 1 1 1 1 1 1 1 1 1 1 1 1 1 0 -0 -0 -0 -0 -0 -0 0 0 -0 -0 -0 0 1 1 1 1 1 1 1 1 1 1 1 1 1 1 1 1 1 1 1 0 0 0 0 0 0 0 0 0 -0 -0 -0 -0 -0 -0 -0 -0 -0 -0 -0 0 0 0
3 3 3 3 3 2 2 2 2 2 1 1 1 1 1 1 1 1 1 1 1 1 1 1 1 1 1 1 1 0 0 -0 -0 -1 -1 -1 -1 -0 -0 -0 -0 -0 -0 0 0 1 0 1 1 1 1 1 1 1 1 1 1 1 1 1 1 1 1 1 0 0 0 0 0 0 0 0 0 0 -0 -0 -0 -0 -0 -0 -0 -0 -0 -0 -0 -0
2 3 2 2 2 2 2 2 1 1 1 1 1 1 1 1 1 1 1 1 1 1 0 0 0 0 -0 -0 -0 -0 -0 -0 -1 -1 -1 -1 -1 -1 -1 -1 -1 -0 -0 0 0 0 0 0 1 1 1 1 1 1 1 1 1 1 1 1 1 1 1 0 0 0 0 0 0 0 0 0 0 0 0 0 0 -0 -0 -0 -0 -0 -0 -0 -0 -0
2 2 2 2 2 2 2 1 1 1 1 1 1 1 0 0 0 0 0 0 -0 -0 -1 -1 -1 -1 -1 -1 -1 -1 -0 -1 -1 -1 -1 -1 -1 -1 -1 -1 -1 -1 -0 -0 0 0 0 0 0 0 1 1 1 1 1 1 1 1 0 0 0 0 0 0 0 0 0 0 0 0 0 0 0 0 0 0 0 0 -0 -0 -0 -0 -0 -0 -0 -0
1 1 1 1 1 1 1 1 1 0 0 0 0 0 0 0 -0 -0 -0 -0 -1 -1 -1 -1 -1 -1 -2 -2 -1 -1 -1 -1 -1 -1 -1 -1 -1 -1 -1 -1 -1 -1 -0 -0 -0 -0 -0 -0 0 0 0 0 0 0 0 0 0 0 0 0 0 0 0 0 0 0 0 0 0 0 0 0 0 0 0 0 -0 -0 -0 -0 -0 -0 -0 -0 -0 -0
1 1 1 1 1 1 1 1 1 0 0 0 -0 -0 -0 -0 -1 -1 -1 -1 -1 -1 -2 -2 -2 -2 -2 -2 -2 -1 -1 -1 -1 -1 -1 -1 -1 -1 -1 -1 -1 -1 -1 -1 -0 -0 -0 -0 -0 -0 -0 -0 -0 -0 -0 -0 -0 -0 -0 -0 -0 -0 -0 -0 0 0 0 0 0 0 0 0 0 0 -0 -0 -0 -0 -0 -0 -0 -0 -0 -0 -0 -0
1 1 1 1 1 1 1 1 0 0 0 -0 -0 -0 -1 -1 -1 -1 -1 -1 -1 -2 -2 -2 -2 -2 -2 -1 -1 -1 -1 -1 -1 -0 -1 -1 -1 -1 -1 -1 -1 -1 -1 -1 -1 -1 -1 -1 -1 -0 -0 -0 -0 -0 -0 -0 -0 -0 -0 -0 -0 -0 -0 0 0 0 0 0 0 0 0 0 0 -0 -0 -0 -0 -0 -0 -0 -0 -0 -0 -0 -0 -0
1 1 1 1 0 0 0 0 0 0 -0 -0 -0 -1 -1 -1 -1 -2 -2 -2 -1 -1 -1 -1 -1 -1 -1 -1 -1 -1 -1 -1 -1 -1 -1 -0 -0 -1 -1 -1 -1 -1 -1 -1 -1 -1 -1 -1 -1 -1 -1 -1 -0 -0 -0 -0 -0 -0 -0 -0 -0 -0 -0 0 0 0 -0 -0 -0 -0 -0 -0 -0 -0 -0 -0 -0 -0 -0 -0 -0 -0 -0 -0 -0 -0
1 0 0 0 0 0 0 0 -0 -0 -0 -1 -1 -1 -1 -1 -1 -2 -2 -2 -2 -1 -1 -1 -2 -2 -2 -2 -2 -2 -2 -1 -1 -1 -1 -1 -1 -1 -1 -1 -1 -1 -1 -1 -1 -1 -1 -1 -1 -1 -1 -1 -1 -0 -0 -0 -1 -1 -1 -0 -0 -0 -0 -0 -0 -0 -0 -0 -0 -0 -0 -0 -0 -0 -0 -0 -0 -0 -0 -0 -0 -0 -0 -0 -0 -0
0 0 0 0 0 -0 -0 -0 -0 -1 -1 -1 -1 -1 -1 -1 -2 -2 -2 -2 -2 -1 -1 -2 -2 -2 -2 -2 -2 -2 -2 -2 -2 -2 -2 -2 -2 -1 -1 -1 -1 -1 -1 -1 -1 -1 -1 -1 -1 -1 -1 -1 -1 -1 -1 -1 -1 -1 -1 -1 -0 -0 -0 -0 -0 -1 -1 -1 -1 -1 -1 -1 -1 -1 -1 -0 -0 -0 -0 -0 -0 -0 -0 -0 -0 -0
0 0 0 -0 -0 -0 -0 -1 -1 -1 -1 -1 -1 -1 -1 -1 -2 -2 -2 -2 -2 -2 -2 -2 -2 -2 -2 -2 -2 -2 -2 -2 -2 -2 -2 -2 -2 -1 -1 -1 -1 -1 -1 -2 -2 -2 -2 -2 -2 -1 -1 -1 -1 -1 -1 -1 -1 -1 -1 -1 -1 -1 -1 -1 -1 -1 -1 -1 -1 -1 -1 -1 -1 -1 -1 -1 -0 -0 -0 -0 -0 -0 -0 -0 -0 -1
-0 -0 -0 -0 -0 -0 -0 -1 -1 -1 -1 -1 -1 -1 -1 -1 -2 -2 -2 -2 -2 -2 -2 -2 -2 -2 -2 -2 -2 -2 -2 -2 -1 -1 -2 -2 -1 -1 -1 -1 -2 -2 -2 -2 -2 -2 -2 -2 -2 -1 -1 -1 -1 -1 -1 -1 -1 -1 -1 -1 -1 -1 -2 -2 -2 -2 -2 -2 -2 -1 -1 -1 -1 -1 -1 -1 -1 -1 -1 -0 -0 -0 -0 -1 -1 -1
-0 -0 -0 -0 -0 -0 -0 -1 -1 -1 -1 -1 -1 -1 -1 -1 -1 -1 -2 -2 -2 -2 -2 -2 -2 -2 -2 -2 -2 -3 -3 -2 -1 -2 -2 -2 -2 -2 -2 -2 -2 -2 -2 -3 -3 -3 -3 -2 -2 -2 -2 -2 -2 -2 -2 -2 -2 -2 -2 -2 -2 -2 -2 -2 -2 -2 -2 -2 -2 -2 -1 -1 -1 -1 -1 -1 -1 -1 -1 -1 -1 -1 -1 -1 -1 -1
-0 -0 -0 -0 -0 -0 -0 -1 -1 -1 -1 -1 -1 -1 -1 -1 -1 -1 -2 -2 -2 -2 -2 -2 -2 -2 -2 -2 -2 -3 -3 -2 -2 -2 -2 -2 -2 -2 -2 -2 -2 -3 -3 -3 -3 -4 -3 -3 -3 -2 -3 -3 -3 -3 -3 -3 -3 -3 -3 -3 -3 -3 -2 -2 -2 -2 -2 -2 -2 -2 -2 -2 -1 -1 -1 -1 -1 -1 -1 -1 -1 -1 -1 -1 -1 -1
-0 -0 -0 -0 -0 -0 -0 -1 -1 -1 -1 -1 -1 -1 -1 -1 -1 -2 -2 -2 -2 -2 -2 -2 -2 -2 -3 -3 -3 -3 -3 -3 -3 -3 -3 -3 -3 -3 -3 -3 -3 -3 -3 -3 -3 -3 -3 -3 -3 -3 -3 -3 -3 -3 -3 -3 -3 -3 -3 -3 -3 -3 -3 -3 -2 -2 -2 -2 -2 -2 -2 -2 -2 -2 -2 -2 -2 -2 -2 -2 -1 -1 -1 -1 -1 -1
-0 -0 -0 -0 -0 -0 -0 -0 -1 -1 -1 -1 -1 -1 -1 -1 -2 -2 -2 -2 -2 -2 -2 -2 -3 -3 -3 -3 -3 -3 -3 -3 -3 -3 -3 -3 -3 -3 -3 -3 -3 -3 -3 -4 -4 -4 -4 -4 -4 -3 -3 -3 -3 -3 -3 -3 -3 -3 -3 -3 -3 -3 -3 -3 -3 -3 -3 -3 -3 -3 -3 -3 -3 -3 -2 -2 -2 -2 -2 -2 -2 -1 -1 -1 -1 -1
-1 -1 -0 -0 -0 -0 -0 -0 -1 -1 -1 -1 -1 -1 -1 -1 -2 -2 -2 -2 -2 -2 -2 -3 -3 -3 -3 -3 -3 -3 -3 -3 -3 -3 -3 -3 -3 -3 -4 -4 -4 -4 -4 -4 -4 -4 -4 -4 -4 -4 -4 -4 -3 -3 -3 -3 -3 -3 -3 -3 -3 -3 -3 -3 -3 -3 -3 -3 -3 -3 -3 -3 -3 -3 -3 -3 -2 -2 -2 -2 -2 -2 -2 -1 -1 -1
-1 -1 -0 -0 -0 -0 -0 -1 -1 -1 -1 -1 -1 -1 -1 -1 -2 -2 -2 -2 -2 -2 -2 -2 -3 -3 -3 -3 -3 -3 -3 -3 -4 -4 -4 -4 -4 -4 -4 -4 -4 -4 -4 -4 -4 -4 -4 -4 -4 -4 -4 -4 -4 -3 -3 -3 -3 -3 -3 -3 -3 -3 -3 -3 -3 -3 -3 -3 -3 -3 -3 -3 -3 -3 -3 -3 -3 -2 -2 -2 -2 -2 -2 -2 -2 -2
-0 -1 -0 -0 -0 -0 -1 -1 -1 -1 -1 -1 -1 -1 -1 -2 -2 -2 -2 -2 -2 -2 -2 -2 -2 -2 -3 -3 -3 -3 -3 -3 -4 -4 -4 -4 -4 -4 -4 -4 -4 -4 -4 -4 -4 -4 -4 -4 -4 -4 -4 -4 -4 -4 -3 -3 -4 -4 -4 -4 -4 -4 -4 -4 -4 -4 -3 -3 -3 -3 -3 -3 -3 -3 -3 -3 -3 -3 -3 -3 -3 -3 -3 -2 -2 -2
-0 -1 -1 -1 -1 -1 -1 -1 -1 -1 -1 -1 -1 -1 -2 -2 -2 -2 -2 -2 -2 -2 -2 -2 -2 -3 -3 -3 -3 -3 -3 -3 -4 -4 -4 -4 -4 -4 -5 -5 -5 -5 -5 -5 -5 -5 -5 -5 -4 -4 -4 -4 -4 -4 -4 -4 -4 -4 -4 -4 -4 -4 -4 -4 -4 -3 -3 -3 -3 -3 -3 -3 -3 -3 -3 -3 -3 -3 -3 -3 -3 -3 -3 -3 -3 -3
-1 -1 -1 -1 -1 -1 -1 -1 -1 -1 -1 -1 -1 -2 -2 -2 -2 -2 -2 -2 -2 -2 -2 -2 -3 -3 -3 -3 -3 -3 -4 -4 -4 -4 -5 -5 -5 -5 -5 -5 -5 -5 -5 -5 -5 -5 -5 -5 -5 -5 -5 -4 -4 -4 -4 -4 -4 -4 -4 -4 -4 -4 -4 -4 -3 -3 -3 -4 -4 -4 -4 -4 -4 -4 -4 -4 -3 -3 -3 -3 -3 -3 -3 -3 -3 -3
-1 -1 -1 -1 -1 -1 -1 -1 -1 -1 -1 -1 -1 -1 -2 -2 -2 -2 -2 -2 -2 -2 -2 -3 -3 -3 -3 -4 -4 -4 -4 -4 -4 -5 -5 -5 -5 -5 -5 -5 -5 -5 -5 -5 -5 -5 -5 -5 -5 -5 -5 -5 -5 -5 -4 -4 -4 -4 -4 -4 -4 -4 -4 -4 -4 -4 -4 -4 -4 -4 -4 -4 -4 -4 -4 -4 -4 -4 -3 -3 -3 -3 -3 -3 -3 -3
-0 -0 -0 -0 -0 -0 -0 -0 -1 -1 -1 -1 -1 -1 -2 -2 -2 -2 -2 -2 -2 -2 -3 -3 -3 -3 -4 -4 -4 -4 -4 -4 -4 -4 -4 -5 -5 -5 -5 -5 -5 -5 -5 -5 -5 -5 -5 -5 -5 -5 -5 -5 -5 -5 -4 -4 -4 -4 -4 -4 -4 -4 -4 -4 -4 -4 -4 -4 -4 -4 -4 -4 -4 -4 -4 -4 -4 -4 -4 -4 -4 -4 -4 -3 -3 -3
-0 -0 -1 -1 -1 -1 -1 -1 -1 -1 -1 -1 -1 -1 -2 -2 -2 -2 -2 -2 -2 -3 -3 -3 -3 -4 -4 -4 -4 -4 -4 -4 -5 -5 -5 -5 -5 -5 -5 -5 -5 -5 -5 -5 -5 -5 -5 -5 -5 -5 -5 -5 -5 -5 -4 -4 -4 -4 -4 -4 -4 -4 -4 -4 -4 -4 -4 -4 -4 -4 -4 -4 -4 -4 -4 -4 -4 -4 -4 -4 -4 -4 -3 -3 -3 -3
-0 -1 -1 -1 -1 -1 -1 -1 -1 -1 -1 -1 -1 -1 -2 -2 -2 -2 -2 -2 -3 -3 -3 -3 -4 -4 -4 -4 -4 -4 -4 -5 -5 -5 -5 -5 -5 -5 -5 -5 -5 -5 -5 -5 -5 -5 -5 -5 -5 -5 -5 -5 -5 -5 -5 -4 -4 -4 -4 -4 -4 -4 -4 -4 -4 -4 -4 -4 -4 -4 -4 -4 -4 -4 -4 -4 -4 -4 -4 -4 -4 -4 -3 -3 -3 -3
-0 -0 -1 -1 -1 -1 -1 -1 -1 -1 -1 -1 -1 -2 -2 -2 -2 -2 -2 -2 -3 -3 -3 -3 -4 -4 -4 -4 -4 -4 -4 -4 -5 -5 -5 -4 -4 -4 -4 -4 -4 -5 -5 -5 -5 -5 -5 -5 -5 -5 -5 -5 -5 -5 -5 -4 -4 -4 -4 -4 -4 -4 -4 -4 -4 -4 -4 -4 -4 -4 -4 -4 -4 -4 -4 -4 -4 -4 -4 -4 -4 -3 -3 -3 -3 -3
-0 -0 -0 -1 -1 -1 -1 -1 -1 -1 -1 -1 -2 -2 -2 -2 -2 -2 -2 -2 -3 -3 -3 -3 -3 -4 -4 -4 -4 -4 -4 -4 -4 -5 -5 -5 -5 -5 -5 -5 -4 -4 -5 -5 -5 -5 -5 -5 -5 -5 -5 -5 -5 -5 -5 -5 -4 -4 -4 -5 -5 -5 -5 -4 -4 -4 -4 -4 -4 -4 -4 -4 -4 -4 -4 -4 -4 -4 -4 -4 -4 -3 -3 -3 -3 -3
-0 -0 -0 -1 -1 -1 -1 -1 -1 -1 -1 -1 -2 -2 -2 -2 -2 -2 -2 -2 -3 -3 -3 -3 -3 -4 -4 -4 -4 -4 -4 -4 -4 -4 -5 -5 -5 -5 -5 -5 -5 -5 -5 -5 -5 -5 -5 -5 -5 -5 -5 -5 -5 -5 -5 -5 -5 -5 -5 -5 -5 -5 -5 -5 -4 -4 -4 -4 -4 -4 -4 -4 -4 -4 -4 -4 -4 -4 -4 -4 -4 -4 -4 -4 -4 -4
-0 -0 -0 -1 -1 -1 -1 -1 -1 -1 -1 -1 -2 -2 -2 -2 -2 -2 -2 -2 -3 -3 -3 -3 -3 -4 -4 -4 -4 -4 -4 -4 -4 -5 -5 -5 -5 -5 -5 -5 -5 -5 -5 -5 -5 -5 -5 -5 -5 -5 -5 -5 -5 -5 -5 -5 -5 -5 -5 -5 -5 -5 -5 -4 -4 -4 -4 -4 -4 -4 -4 -4 -4 -4 -4 -4 -4 -4 -4 -4 -4 -4 -4 -4 -4 -4
-0 -0 -1 -1 -1 -1 -1 -1 -1 -1 -1 -1 -2 -2 -2 -2 -2 -2 -2 -2 -3 -3 -3 -3 -4 -4 -4 -4 -4 -4 -4 -4 -5 -5 -5 -5 -5 -5 -5 -5 -5 -5 -5 -5 -5 -5 -5 -5 -5 -5 -5 -5 -5 -5 -5 -5 -5 -5 -5 -5 -5 -5 -4 -4 -4 -4 -4 -4 -4 -4 -4 -4 -4 -4 -4 -4 -5 -4 -4 -4 -4 -4 -4 -4 -4 -4
-0 -0 -1 -1 -1 -1 -1 -1 -1 -2 -2 -2 -2 -2 -2 -2 -2 -2 -2 -2 -3 -3 -3 -3 -3 -4 -4 -4 -4 -4 -4 -4 -5 -5 -5 -5 -5 -5 -5 -5 -5 -5 -5 -5 -5 -5 -5 -5 -5 -5 -5 -5 -5 -5 -5 -5 -5 -5 -5 -5 -5 -4 -4 -4 -4 -4 -4 -4 -4 -4 -4 -5 -5 -5 -5 -5 -5 -5 -5 -5 -5 -4 -4 -4 -4 -4
-0 -1 -1 -1 -1 -1 -1 -1 -1 -2 -2 -2 -2 -2 -2 -2 -2 -2 -2 -2 -3 -3 -3 -3 -3 -4 -4 -4 -4 -4 -4 -4 -5 -5 -5 -5 -5 -5 -5 -5 -5 -5 -5 -5 -5 -5 -5 -5 -5 -5 -5 -5 -5 -5 -5 -5 -5 -5 -5 -5 -4 -4 -4 -4 -4 -4 -4 -4 -4 -5 -5 -5 -5 -5 -5 -5 -5 -5 -5 -5 -5 -4 -4 -4 -4 -4
-1 -1 -1 -1 -1 -1 -1 -1 -1 -2 -2 -2 -2 -2 -2 -2 -2 -2 -2 -3 -3 -3 -3 -3 -4 -4 -4 -4 -4 -4 -4 -4 -5 -5 -5 -5 -5 -5 -5 -5 -5 -5 -5 -5 -5 -5 -5 -5 -5 -5 -5 -4 -4 -4 -4 -4 -4 -4 -4 -4 -4 -4 -4 -4 -4 -4 -5 -5 -5 -5 -5 -5 -5 -5 -5 -5 -5 -5 -5 -5 -4 -4 -4 -4 -4 -4
Height
762 763 763 763 763 763 763 763 763 763 763 763 763 762 762 763 763 763 763 764 764 765 765 766 766 767 767 767 768 768 768 768 769 769 770 770 771 771 771 771 772 772 772 772 772 772 772 772 772 772 772 772 772 772 771 771 771 771 771 771 771 771 771 771 771 771 771 771 771 771 771 770 770 769 769 768 768 768 768 767 767 767 766 766 766 766
762 762 763 763 763 763 763 763 763 763 762 762 762 762 762 762 762 762 763 763 763 764 764 765 765 765 766 766 767 767 767 768 768 768 769 769 770 770 770 770 770 770 770 770 770 770 770 770 770 770 770 770 770 770 770 770 769 769 769 769 769 769 769 769 769 769 769 769 769 768 768 768 768 767 767 766 766 766 765 765 765 764 764 764 764 763
762 762 762 762 762 762 762 762 762 762 762 762 762 762 762 762 762 762 762 762 763 763 763 764 764 764 765 765 766 766 766 767 767 768 768 768 769 769 769 769 769 769 769 769 769 769 769 769 769 768 768 768 768 768 768 768 768 767 767 767 767 767 767 766 766 766 766 766 766 766 766 765 765 764 764 764 763 763 763 763 763 762 762 762 762 761
761 761 761 761 761 762 762 762 762 762 762 762 761 761 761 761 761 761 762 762 762 762 763 763 763 763 764 764 765 765 766 766 767 767 767 768 768 768 768 768 768 768 768 768 768 768 767 767 767 767 767 767 767 766 766 766 765 765 765 765 764 764 764 764 764 764 764 764 763 763 763 763 763 762 762 762 761 761 761 761 760 760 760 760 760 759
760 760 760 761 761 761 761 761 762 761 761 761 761 761 761 761 761 761 761 761 761 762 762 762 762 763 763 763 764 764 765 765 766 766 766 767 767 767 767 767 767 767 767 767 766 766 766 766 765 765 765 765 765 764 764 764 763 763 763 763 763 762 762 762 762 762 762 761 761 761 761 760 760 760 760 759 759 759 759 759 758 758 758 758 757 757
759 759 760 760 760 760 761 761 761 761 761 761 761 761 761 760 760 760 760 761 761 761 761 762 762 762 762 763 763 763 764 764 765 765 765 766 766 766 766 766 766 766 765 765 765 765 764 764 764 763 763 763 763 763 762 762 762 761 761 761 761 760 760 760 760 759 759 759 759 759 758 758 758 758 758 758 757 757 757 757 756 756 756 755 755 755
759 759 759 759 759 760 760 760 761 761 761 761 761 761 760 760 760 760 760 760 760 760 761 761 761 761 762 762 762 763 763 763 764 764 765 765 765 765 765 765 765 764 764 764 763 763 763 763 762 762 762 761 761 761 761 760 760 760 759 759 759 758 758 758 758 758 757 757 757 757 756 756 756 756 756 755 755 755 754 754 754 753 753 753 753 752
758 759 759 759 759 759 759 760 760 760 760 760 760 760 760 760 760 759 759 759 760 760 760 760 760 760 761 761 762 762 762 763 763 763 763 763 764 764 763 763 763 763 763 762 762 762 761 761 761 760 760 760 759 759 759 758 758 758 758 757 757 757 757 756 756 756 755 755 755 754 754 754 754 753 753 753 753 753 752 752 751 751 751 750 750 750
758 759 759 759 759 759 759 759 760 760 760 760 760 760 760 760 759 759 759 759 759 759 759 759 760 760 760 761 761 761 761 762 762 762 762 762 762 762 762 762 762 761 761 761 761 760 760 759 759 759 758 758 758 757 757 757 756 756 756 755 755 755 755 754 754 754 754 753 753 753 752 752 752 751 751 751 750 750 750 749 749 748 748 748 747 747
759 759 759 759 759 759 759 759 760 760 760 760 760 760 760 760 760 759 759 759 759 759 759 759 759 760 760 760 760 761 761 761 761 761 761 761 761 761 760 760 760 760 760 759 759 759 758 758 758 757 757 756 756 756 755 755 755 754 754 754 753 753 753 753 753 752 752 752 751 751 750 750 749 749 749 748 748 748 747 747 746 746 745 745 744 744
759 759 759 760 760 760 760 760 760 760 760 760 760 760 760 760 760 760 759 759 759 759 759 759 759 759 759 760 760 760 760 760 760 760 760 760 760 759 759 759 759 758 758 758 758 757 757 757 756 756 755 755 754 754 754 753 753 753 752 752 752 751 751 751 751 750 750 750 749 749 748 748 748 747 747 746 746 745 745 744 744 743 743 742 742 742
760 760 760 760 760 760 760 760 760 760 760 761 761 760 760 760 760 760 759 759 759 759 759 759 759 759 759 759 759 759 759 759 759 759 758 758 758 758 758 758 758 757 757 757 756 756 756 755 755 754 754 753 753 753 752 752 751 751 751 750 750 750 749 749 749 748 748 748 747 747 746 746 746 745 745 744 744 743 743 742 742 741 740 740 739 739
760 760 760 760 760 760 760 760 760 760 760 761 761 760 760 760 760 759 759 759 759 759 759 759 759 758 758 758 758 758 758 758 758 758 757 757 757 757 757 756 756 756 755 755 754 754 754 753 753 753 752 752 751 751 751 750 750 749 749 748 748 748 748 747 747 746 746 746 745 745 744 744 743 743 743 742 742 741 741 740 739 739 738 738 737 737
760 760 760 760 760 760 760 760 760 760 760 760 761 760 760 760 760 759 759 759 759 759 759 758 758 758 758 758 758 758 757 757 757 756 756 756 756 756 756 755 754 754 754 753 753 753 753 753 752 751 751 751 750 749 749 749 748 748 748 747 747 746 746 745 745 745 744 744 743 743 743 742 742 741 741 740 740 739 738 738 737 737 736 736 735 735
760 760 760 760 760 760 760 760 760 760 760 761 761 760 760 760 760 760 759 759 759 758 758 758 758 758 758 757 757 757 756 756 756 755 755 755 755 755 755 754 753 753 753 753 752 752 752 752 751 750 749 749 749 748 748 747 747 746 746 746 745 745 744 744 743 743 743 742 742 741 741 740 739 739 738 738 738 737 736 736 735 734 734 733 733 733
760 760 760 760 760 760 760 760 761 761 761 761 761 760 760 760 760 760 759 759 759 758 758 758 757 757 757 757 756 756 756 756 756 755 755 754 754 754 754 753 753 752 752 752 751 750 750 750 749 749 748 748 747 747 746 746 745 745 744 744 743 743 743 742 742 741 741 740 740 739 739 738 738 737 737 736 735 735 734 733 733 732 732 731 731 730
760 760 760 760 760 760 760 761 761 760 761 761 761 761 761 760 760 760 760 759 759 759 758 758 758 758 757 756 756 756 756 756 755 755 754 753 753 753 753 753 752 751 750 750 749 749 748 748 748 747 747 746 746 745 745 744 744 743 743 743 742 742 741 740 740 739 739 738 738 738 737 737 736 735 735 734 733 733 732 731 731 730 730 729 729 728
761 761 761 761 761 760 761 761 761 761 761 761 761 761 761 761 760 760 760 760 759 759 759 759 758 758 758 757 757 756 756 756 755 754 753 752 751 751 752 751 750 749 749 748 748 747 747 747 746 746 745 745 744 744 743 743 743 742 741 741 740 740 739 738 738 738 737 737 736 736 735 735 734 733 733 732 731 731 730 729 729 728 728 728 727 727
761 761 761 761 761 761 761 761 761 761 761 761 761 761 761 761 760 760 760 760 759 759 759 759 758 758 758 757 757 757 756 755 755 754 753 751 750 750 750 750 749 748 747 747 746 746 746 745 745 745 744 743 743 743 742 742 741 741 740 739 739 738 738 737 737 736 736 735 735 734 734 733 732 732 731 730 729 729 728 728 727 727 726 726 725 724
761 761 761 761 761 761 761 761 761 761 761 761 761 761 761 760 760 760 760 760 759 759 759 759 758 758 758 757 757 757 756 755 754 753 752 750 749 748 748 748 747 746 746 745 744 744 744 744 744 743 743 743 742 742 741 740 740 739 738 738 737 737 736 736 735 735 734 734 733 733 732 731 731 730 729 728 728 727 727 726 725 725 724 723 723 722
761 761 761 761 761 761 761 761 761 761 761 761 761 760 760 760 760 760 760 759 759 759 759 758 758 758 757 757 756 756 755 755 754 753 751 749 748 747 747 747 746 745 744 743 743 743 743 743 743 742 742 741 741 740 739 739 738 738 737 736 736 735 735 734 734 733 733 732 732 731 730 729 729 728 727 727 726 725 725 724 723 723 722 721 721 720
761 761 761 761 761 761 760 760 760 760 760 760 760 760 760 760 760 759 759 759 759 758 758 758 758 757 757 756 755 755 755 754 753 753 751 749 746 745 746 746 745 744 743 742 742 742 742 742 741 741 740 740 739 738 738 737 737 736 735 735 734 734 733 733 732 732 731 730 730 729 728 728 727 726 726 725 724 723 723 722 722 721 720 719 719 718
761 761 761 761 761 760 760 760 760 760 760 760 760 760 760 759 759 759 759 759 758 758 758 757 757 756 756 755 754 754 753 753 753 752 751 748 745 744 744 745 744 743 742 741 741 741 740 740 739 739 738 738 738 737 736 736 735 735 734 733 733 732 732 731 730 730 729 729 728 727 727 726 725 724 724 723 722 722 721 720 719 719 718 717 717 716
761 761 761 760 760 760 760 760 760 760 760 759 759 759 759 759 759 759 758 758 758 758 757 757 756 755 755 754 753 753 752 752 752 751 750 748 745 743 743 744 743 742 740 740 740 739 738 738 737 737 737 736 736 735 735 734 733 733 733 732 731 731 730 729 729 728 728 727 726 726 725 724 723 723 722 721 720 719 719 718 717 717 716 715 714 714
761 760 760 760 760 760 760 760 759 759 759 759 759 759 759 758 758 758 758 758 758 757 757 756 755 754 754 753 753 752 752 752 752 751 750 747 744 743 743 743 742 741 739 738 738 738 737 736 735 735 735 734 734 733 733 733 732 731 731 730 730 729 729 728 728 727 726 726 725 724 723 723 722 721 720 719 718 718 717 716 715 714 714 713 712 711
760 760 760 759 759 759 759 759 759 759 759 759 758 758 758 758 758 758 758 757 757 757 756 756 755 754 753 753 752 752 751 751 751 750 749 748 745 743 742 742 742 740 738 738 737 737 736 735 734 733 733 733 732 732 731 731 730 730 729 729 729 728 728 727 727 726 725 724 723 722 721 720 720 719 718 717 716 715 715 714 713 712 712 711 710 709
759 759 759 759 759 759 759 758 758 758 758 758 758 758 758 758 758 757 757 757 757 757 756 755 754 753 753 753 752 751 751 750 750 749 749 748 745 743 741 741 741 740 738 737 736 736 735 734 733 732 731 731 730 730 730 729 729 729 728 728 728 727 726 725 725 724 723 722 721 720 719 718 717 717 716 715 714 713 713 712 711 710 709 708 707 706
758 758 758 758 758 758 758 758 758 758 758 758 758 758 758 757 757 757 756 756 756 756 756 755 754 754 753 752 751 751 750 750 749 748 748 747 745 743 741 741 741 740 738 737 735 734 734 733 731 730 729 729 728 728 728 728 728 728 727 726 726 725 724 723 723 722 721 720 719 718 717 716 715 714 713 713 712 711 710 710 709 708 707 706 705 704
758 758 758 758 758 757 757 757 757 757 757 757 757 757 757 757 756 756 756 756 756 756 755 755 754 754 753 752 751 750 749 749 748 748 747 747 744 743 741 741 741 740 739 737 734 732 732 731 730 729 728 728 728 728 727 727 726 726 725 725 724 723 723 722 721 719 718 718 717 716 715 714 713 712 712 711 710 709 708 708 707 706 705 704 703 702
757 757 757 757 757 757 756 756 756 756 756 756 756 756 756 755 755 755 755 755 755 755 754 754 754 753 753 752 751 749 748 748 748 748 747 746 744 743 742 741 741 740 740 738 735 731 729 728 728 728 728 727 727 726 726 726 725 724 724 723 722 721 720 719 718 717 716 715 715 714 713 712 711 710 709 709 708 707 707 706 705 704 703 702 701 699
757 757 756 756 756 756 756 755 755 755 755 755 755 755 755 754 754 754 754 754 754 754 754 753 753 753 753 752 751 749 748 747 747 748 747 746 744 743 742 741 740 740 740 740 738 734 729 726 726 727 727 727 726 725 725 724 723 723 722 721 719 718 718 717 716 715 714 713 713 712 711 710 709 708 708 707 706 705 704 704 703 703 702 700 699 697
756 756 756 756 755 755 755 755 754 754 754 754 754 754 754 754 753 753 753 753 753 753 753 753 752 752 752 752 751 750 748 747 747 747 747 746 744 743 742 741 740 739 739 740 740 738 734 728 725 725 726 725 725 724 723 723 722 721 720 719 718 716 716 715 714 713 712 711 711 710 709 708 707 706 705 705 704 703 702 702 701 701 700 698 697 695
756 756 756 755 755 755 754 754 754 753 753 753 753 753 753 753 753 753 753 752 752 752 752 752 752 751 751 751 750 749 748 747 747 747 747 746 744 743 742 741 740 739 739 738 738 738 736 732 728 725 724 723 723 722 721 721 720 719 718 718 716 715 714 713 713 712 711 709 708 708 707 706 705 704 703 702 702 701 700 699 699 699 698 697 695 694
755 755 755 755 755 754 754 754 753 753 753 753 752 752 752 752 752 752 752 752 752 752 751 751 751 751 750 749 748 748 747 746 746 747 747 746 744 743 741 741 740 739 738 738 737 736 734 732 729 727 723 721 721 721 720 719 718 718 717 716 715 713 712 712 711 710 709 708 706 705 704 703 703 702 701 700 699 698 698 697 697 697 696 695 694 692
754 754 754 754 754 753 753 753 753 753 752 752 752 751 751 751 751 751 751 751 751 751 750 750 750 750 749 749 748 746 745 745 745 746 746 745 744 743 741 740 739 739 738 737 736 735 733 730 729 728 725 721 718 718 718 718 717 716 715 715 714 712 711 710 709 708 707 706 704 703 702 701 700 699 698 698 697 696 696 695 695 694 694 693 693 691
753 753 753 753 753 752 752 752 752 752 751 751 751 751 750 750 750 750 750 750 749 749 749 749 749 748 748 748 747 745 744 744 744 745 745 744 743 742 741 739 738 738 738 736 735 734 732 730 728 727 725 722 718 716 715 716 715 715 713 713 712 711 709 709 708 707 705 703 702 701 700 699 698 698 697 696 695 694 694 693 693 692 691 691 690 689
752 751 751 751 751 751 751 750 750 750 750 750 750 750 750 749 749 749 749 748 748 748 748 748 748 747 747 746 746 745 744 743 743 743 743 743 743 742 740 738 738 738 737 736 734 733 732 729 727 725 724 722 719 716 714 713 713 713 712 711 710 708 707 707 706 705 703 702 701 699 698 698 697 696 695 694 693 692 691 690 690 689 688 688 687 686
751 750 750 750 750 749 749 749 749 749 749 749 749 749 748 748 748 748 748 748 748 747 747 747 746 746 745 745 744 744 743 743 742 742 742 742 741 740 739 738 737 736 736 735 734 733 732 730 727 724 722 720 718 717 715 713 712 710 709 708 708 707 705 704 704 703 702 701 699 698 697 696 695 694 693 692 691 690 688 688 687 686 686 685 683 683
749 749 749 748 748 748 748 748 748 748 748 748 748 748 748 747 747 747 747 747 747 746 746 746 745 745 744 744 743 743 742 741 741 740 740 740 739 739 738 737 735 735 734 734 733 733 731 729 727 725 722 719 717 715 714 713 712 710 708 706 704 704 703 703 703 702 700 699 698 696 695 694 693 692 691 690 689 688 686 685 684 683 683 682 680 679
748 748 748 748 747 747 747 747 747 747 747 747 746 746 746 746 746 746 746 746 746 745 745 745 744 743 743 743 742 741 741 740 739 738 738 738 738 737 737 735 734 733 733 733 732 731 730 728 726 724 723 720 717 714 713 711 711 709 708 705 703 701 701 701 701 700 698 698 696 695 693 692 691 690 689 688 687 686 685 683 682 681 680 680 678 676
747 747 747 746 746 746 746 746 746 746 746 745 745 745 745 745 745 745 745 745 744 744 744 743 743 743 742 741 740 740 739 738 738 737 737 736 736 735 735 734 733 732 731 731 730 729 728 727 725 723 721 720 717 714 712 710 709 709 708 706 703 700 699 699 698 698 697 696 695 694 693 691 690 688 687 686 685 684 683 682 680 678 678 677 676 675
746 745 745 745 745 745 745 745 745 745 744 744 744 744 744 744 744 744 744 743 743 743 743 743 742 741 740 739 738 738 738 737 736 736 735 734 734 734 733 732 732 731 730 729 728 727 726 725 724 722 720 719 717 714 711 708 708 708 707 705 703 700 697 696 696 696 696 694 693 692 691 689 688 686 685 684 682 681 680 679 678 677 675 674 673 672
744 744 744 744 744 744 744 744 744 743 743 743 743 743 743 743 743 743 743 742 742 742 742 741 741 740 739 737 737 736 736 736 735 734 734 733 733 732 732 731 730 729 729 728 726 725 724 723 722 721 719 718 716 714 710 708 706 706 705 705 703 701 697 694 693 694 694 693 691 690 689 688 686 684 683 682 680 679 678 677 675 674 673 672 670 669
743 743 743 743 743 743 743 743 743 742 742 742 742 741 741 742 742 741 741 741 741 740 740 740 740 739 738 736 735 734 734 734 733 733 733 732 731 731 730 729 729 728 728 727 725 723 722 721 720 719 718 717 715 713 710 708 705 704 703 703 703 702 698 695 693 692 691 690 689 688 687 686 684 683 681 679 678 676 675 674 673 671 670 669 668 666
742 742 742 742 742 742 741 741 741 741 741 741 740 740 740 740 740 740 740 739 739 739 739 739 738 738 736 735 734 733 733 732 732 731 731 731 730 730 729 728 728 727 726 725 724 723 721 720 718 717 716 715 714 712 709 707 705 703 702 701 701 699 697 695 693 692 690 688 687 686 685 684 683 681 678 676 675 673 673 671 670 668 667 666 665 663
741 741 741 741 741 740 740 740 740 740 740 739 739 739 739 739 739 739 738 738 738 738 738 738 737 736 735 733 733 732 731 730 730 730 729 729 728 728 728 727 726 725 724 723 722 721 720 719 717 716 714 713 711 709 708 707 705 703 700 699 698 697 695 693 692 691 690 688 686 684 683 683 681 679 677 674 672 670 669 668 668 666 664 663 662 660
740 739 739 739 739 739 739 739 739 739 738 738 738 738 738 738 738 738 737 737 737 737 736 736 736 735 734 733 732 731 730 729 728 728 728 728 727 727 726 725 725 724 723 722 721 719 718 717 716 715 714 712 709 707 705 705 704 702 700 698 697 695 693 691 690 689 688 687 685 683 682 681 679 678 675 672 670 667 666 665 664 663 662 660 658 657
738 738 738 738 738 738 738 738 738 738 737 737 737 737 737 737 737 737 736 736 736 735 735 734 734 733 733 732 731 731 730 729 728 727 727 726 726 725 724 724 723 722 721 720 719 718 716 715 714 714 713 712 709 705 703 702 702 701 699 698 696 694 692 689 688 687 687 685 683 682 681 680 678 676 673 670 667 664 662 661 660 660 659 658 656 654
737 737 737 737 737 737 736 736 736 736 736 736 736 735 735 736 736 735 735 735 734 734 733 733 733 732 731 730 730 729 729 728 727 726 726 725 724 724 723 722 721 720 719 718 717 715 714 713 712 712 711 710 708 704 701 700 699 699 698 697 695 693 691 688 686 685 685 683 682 681 680 679 678 676 674 670 666 662 659 658 657 656 655 654 653 651
735 735 735 735 735 735 735 735 735 735 735 734 734 734 734 734 734 734 734 733 733 733 732 732 731 731 730 729 728 728 728 727 726 725 725 724 724 723 722 721 720 719 717 716 714 713 712 710 709 708 708 707 706 703 701 699 697 697 696 694 693 692 690 687 685 684 683 682 680 679 678 677 675 674 673 670 665 660 657 654 653 652 652 651 650 648
734 734 734 734 734 734 734 734 734 733 733 733 733 733 733 733 733 733 733 732 732 731 731 730 730 730 729 728 728 727 727 726 725 724 724 723 723 722 721 720 719 718 716 715 713 712 711 709 706 704 703 703 703 703 701 698 697 695 694 692 691 690 689 686 684 683 682 681 679 678 676 674 673 672 670 668 664 660 655 652 649 648 648 648 647 645
Wind_Speed
7 7 7 7 7 7 8 8 8 8 8 8 8 9 9 10 10 11 12 13 14 15 15 16 16 17 17 18 18 19 19 20 20 20 20 20 20 19 19 19 19 19 19 19 19 18 18 17 16 16 17 17 18 18 19 19 19 20 20 20 20 20 20 20 21 21 21 21 21 21 21 21 21 21 21 21 21 21 21 21 21 22 22 22 22 22
7 7 8 7 8 8 9 9 8 8 8 8 9 9 10 11 12 12 13 14 15 15 15 16 16 16 17 17 17 17 18 18 18 18 18 18 18 18 18 18 19 19 18 18 17 16 16 16 16 17 18 18 19 19 20 20 20 21 21 21 21 21 21 21 21 22 22 22 22 22 22 22 22 22 22 22 22 22 22 22 22 23 23 23 23 23
6 7 7 8 8 8 9 8 8 7 7 7 8 9 10 11 12 13 13 14 14 15 15 15 16 16 16 16 16 17 17 17 17 18 18 18 18 18 18 18 18 17 17 16 16 16 16 17 17 18 19 19 20 20 21 21 21 21 21 22 22 22 22 22 22 22 22 22 23 23 23 23 24 24 23 23 23 23 23 23 23 23 23 23 23 23
5 6 7 7 8 8 8 8 8 8 8 7 7 8 8 9 10 11 12 13 13 14 14 14 15 15 16 16 16 16 16 17 17 17 17 17 17 17 16 16 16 16 15 16 16 16 17 18 18 19 19 20 20 21 21 21 22 22 22 22 23 23 23 23 23 23 23 23 23 24 24 24 24 24 24 24 23 23 24 24 24 24 23 23 23 23
3 4 5 6 6 7 7 8 8 8 8 8 8 8 8 8 8 9 10 11 11 12 13 13 14 14 15 15 15 15 15 15 15 15 15 15 15 15 15 15 15 15 15 16 17 17 18 18 19 19 19 20 20 21 21 21 22 22 22 23 23 23 23 23 23 23 23 24 24 24 24 24 24 23 23 23 23 24 24 24 24 23 23 23 23 24
3 3 3 4 5 5 5 6 7 7 7 8 8 8 8 8 8 8 9 9 10 10 11 11 12 12 13 13 12 12 12 12 12 12 12 13 13 13 13 14 14 15 15 16 16 17 17 18 18 18 19 19 20 21 21 22 22 22 23 23 23 23 24 24 24 24 24 24 23 23 23 23 23 23 23 23 23 24 24 24 24 24 24 24 24 24
2 2 3 4 4 5 4 4 5 5 6 6 7 7 7 7 8 8 8 8 8 9 9 9 9 9 10 10 10 10 10 10 10 10 11 11 12 12 13 14 14 15 15 16 16 17 17 18 18 19 19 20 20 21 21 22 22 22 23 23 23 24 24 24 24 24 24 24 23 23 23 23 23 24 24 24 24 24 24 24 24 24 24 24 24 24
3 3 3 3 3 3 4 3 3 3 4 4 3 4 4 5 6 6 6 6 6 6 6 7 7 8 8 8 8 8 9 9 9 10 11 11 12 13 14 14 15 15 16 16 16 17 18 18 19 20 20 21 21 21 22 22 22 23 23 23 23 24 24 24 24 24 24 24 23 23 23 23 24 24 25 25 25 25 25 25 25 25 25 25 25 25
3 3 3 2 2 1 1 2 2 2 3 2 2 2 3 3 4 4 4 4 4 4 5 6 7 7 8 8 8 8 8 9 10 11 12 13 14 14 15 15 16 16 16 17 17 18 18 19 20 20 20 21 21 21 21 22 22 22 23 23 24 24 24 24 24 24 24 24 24 24 24 24 24 25 25 25 26 26 25 25 25 25 24 25 25 25
2 2 2 2 1 1 2 2 2 3 5 5 4 3 4 4 4 5 5 6 5 4 4 6 7 8 8 7 7 7 8 9 10 12 13 14 15 15 16 16 17 17 18 18 18 18 18 19 19 19 19 19 19 20 20 20 21 21 22 23 23 24 24 24 24 24 24 24 24 24 24 24 24 25 25 25 25 25 25 25 25 24 24 24 24 24
2 2 3 3 3 2 3 2 3 4 6 6 6 6 6 5 5 6 7 7 7 6 6 6 6 7 7 7 7 8 9 10 12 13 14 15 15 15 16 17 18 18 18 18 18 17 17 17 17 17 17 18 18 18 18 19 19 20 20 21 22 22 23 23 24 23 23 23 23 23 23 23 24 24 24 24 24 24 24 24 24 24 24 24 24 24
3 3 3 4 4 3 3 3 3 4 6 7 6 6 7 7 6 6 6 6 6 6 6 6 6 6 6 7 8 9 11 12 13 14 15 16 16 16 17 17 18 18 17 17 17 17 17 17 18 18 18 18 18 18 18 19 19 19 19 20 20 21 21 22 22 22 22 22 22 22 22 22 22 22 23 23 23 23 23 23 24 24 24 24 24 24
3 3 3 3 4 4 4 3 3 4 6 7 6 5 5 6 7 7 6 5 4 4 5 5 6 7 8 9 10 11 13 14 14 15 16 16 16 16 16 17 17 16 16 16 17 17 18 18 19 19 18 19 19 19 19 19 19 19 19 19 19 20 20 20 20 20 20 20 20 21 21 21 21 21 22 22 23 23 23 23 24 24 24 24 24 25
3 3 3 4 4 4 5 4 3 4 5 5 4 4 4 5 6 6 6 6 5 5 6 6 7 8 10 11 12 13 13 14 15 15 16 16 16 15 15 16 16 15 16 17 18 19 19 19 20 20 19 19 20 20 20 20 20 19 19 19 19 19 19 19 19 19 19 19 20 20 20 20 21 21 22 22 23 23 23 24 24 24 24 25 25 25
4 4 4 4 5 5 5 5 5 4 3 3 3 3 3 3 4 4 4 4 5 6 7 8 9 10 11 11 12 12 13 13 14 14 15 15 15 14 14 14 15 15 16 18 20 20 20 20 20 20 20 19 19 19 19 19 19 18 18 18 18 18 18 18 19 19 19 19 20 20 20 21 21 22 22 23 23 23 24 24 24 25 25 25 25 26
3 4 4 4 4 4 4 4 3 3 3 3 3 2 1 1 3 4 4 4 5 6 7 8 9 9 9 9 9 10 10 11 12 12 14 15 16 15 14 14 15 16 18 19 21 21 21 20 19 18 18 18 17 17 17 17 17 17 17 18 18 18 19 19 19 19 20 20 20 21 21 21 22 22 23 23 23 23 24 24 24 24 25 25 25 26
1 1 2 3 1 1 3 3 2 2 3 3 3 2 2 2 3 4 5 5 6 6 6 6 5 4 5 5 5 6 6 8 9 11 13 16 17 17 16 16 16 18 19 20 21 21 19 18 17 16 16 16 16 16 17 17 17 17 18 18 18 19 19 20 20 20 21 21 21 21 22 22 22 23 23 23 23 23 24 24 24 24 25 25 25 26
2 2 3 4 3 2 2 2 1 2 2 3 3 4 4 4 5 5 6 6 6 6 5 5 4 3 4 4 5 5 7 8 9 11 14 16 18 18 18 17 17 18 19 20 20 19 18 16 15 15 16 16 17 17 17 18 18 18 18 19 19 20 20 20 21 21 22 22 22 22 22 22 23 23 23 23 23 23 24 24 24 24 25 25 25 26
3 3 3 3 3 1 1 2 2 3 3 3 3 4 4 4 4 4 5 6 6 6 7 6 6 6 6 7 7 7 9 10 11 12 14 16 18 18 18 17 18 18 19 19 19 17 16 16 16 16 17 17 18 18 18 18 18 18 19 19 20 20 21 21 21 22 22 22 23 23 23 23 23 23 23 23 23 23 24 24 24 24 25 25 25 26
3 2 2 2 2 2 2 2 2 2 2 2 2 3 3 3 4 5 5 5 6 6 7 7 7 7 7 8 8 9 9 11 13 14 15 16 18 18 18 17 17 18 18 18 17 16 16 16 16 16 17 17 18 18 18 18 18 19 19 20 20 20 21 21 22 22 22 23 23 23 24 24 24 24 24 24 24 24 24 24 24 25 25 25 26 26
3 3 2 1 1 1 1 1 1 1 1 2 3 3 2 3 4 4 4 5 5 5 6 6 7 7 8 10 11 12 12 14 15 16 15 16 16 17 17 16 16 16 17 17 17 16 15 16 16 17 17 18 18 19 18 19 19 19 20 20 21 21 21 22 22 22 23 23 23 24 24 24 24 24 24 24 24 24 24 25 25 25 25 25 26 26
3 3 2 1 0 1 2 2 2 2 2 2 3 3 3 3 4 4 5 5 6 7 8 9 10 10 12 14 15 16 16 16 16 16 14 14 15 17 16 15 14 15 16 17 17 17 17 17 18 18 19 19 19 20 20 20 20 21 21 21 22 22 22 22 23 23 23 23 24 24 24 24 25 25 25 25 25 25 25 25 25 25 26 26 26 26
2 2 2 1 1 1 2 2 1 2 2 2 3 3 4 4 5 6 7 8 9 10 11 12 13 14 15 16 17 17 15 14 14 14 13 10 13 15 15 14 14 15 16 17 18 18 19 19 20 20 20 20 21 21 21 21 21 22 22 22 22 22 23 23 23 23 23 23 23 23 24 24 24 25 25 25 26 26 26 26 26 26 26 26 26 26
2 2 2 2 2 3 3 3 2 2 3 3 3 4 5 6 6 7 8 9 10 10 11 12 13 14 14 14 14 14 13 12 12 12 12 11 13 15 15 14 15 16 18 18 19 19 20 21 21 21 21 20 21 21 21 21 22 22 22 22 22 22 22 22 22 22 22 22 23 23 23 24 24 25 25 25 26 26 26 27 27 27 27 27 27 27
4 4 4 4 4 4 5 5 5 5 5 5 6 6 7 7 7 8 8 9 9 10 11 12 12 12 12 12 12 12 12 11 11 11 12 12 14 16 16 15 15 16 18 19 19 19 20 21 22 21 21 21 21 21 22 22 23 22 22 21 21 21 21 21 21 21 21 21 22 22 23 24 24 25 26 26 26 26 27 27 27 27 27 27 27 28
6 6 6 6 6 6 7 7 7 7 7 7 8 8 8 8 9 9 9 9 9 10 10 10 10 11 12 11 11 11 11 11 10 11 12 12 14 16 17 16 15 16 18 19 19 19 19 21 21 21 21 22 23 23 23 22 21 20 19 19 19 19 19 19 19 20 20 21 22 23 24 25 25 26 26 26 26 27 27 27 27 27 27 27 28 28
8 8 8 9 9 9 9 9 9 8 8 7 7 7 8 9 9 10 10 9 9 9 9 8 8 9 11 11 11 11 12 12 11 12 13 14 15 16 17 16 16 16 18 19 19 19 19 20 21 22 23 24 23 22 19 18 16 16 16 17 17 18 19 20 21 22 24 24 25 25 25 25 25 26 26 26 26 26 26 26 27 27 27 27 27 27
9 9 9 10 10 10 10 9 9 8 7 7 6 6 7 8 9 9 9 9 8 9 9 8 7 7 8 9 11 13 14 14 14 14 14 14 14 14 16 16 16 16 17 19 20 20 19 20 21 22 23 21 19 16 15 14 15 15 16 18 19 21 23 24 26 27 26 26 26 25 25 25 25 25 25 25 26 26 26 26 26 26 26 26 26 26
7 7 8 8 8 8 8 8 8 8 7 7 7 7 8 9 9 10 10 9 8 9 10 10 9 9 9 11 13 14 14 14 13 13 12 12 12 14 15 15 15 15 16 18 19 20 19 18 18 18 18 16 14 13 13 14 16 18 20 22 24 26 27 27 27 26 25 24 24 24 24 24 24 25 25 25 25 25 25 25 25 25 25 25 25 25
7 7 7 7 7 7 7 7 8 8 7 7 7 8 9 9 10 11 10 9 9 9 10 10 10 10 10 11 11 10 10 10 9 8 9 9 11 13 14 14 14 15 15 15 13 12 14 16 15 13 12 12 12 14 16 18 20 22 25 26 27 27 26 25 24 23 23 23 23 23 24 24 24 24 24 24 24 25 25 25 25 24 24 24 25 25
8 8 8 8 8 8 8 8 8 8 8 8 8 9 9 10 10 10 9 9 10 11 11 11 11 11 10 9 6 4 4 8 8 8 10 11 12 13 15 15 15 15 14 11 6 4 8 11 13 12 11 13 16 18 20 22 24 25 25 26 25 25 24 23 22 22 22 22 22 23 23 23 23 23 24 24 24 24 25 25 24 24 24 24 25 25
8 9 9 9 9 8 9 9 9 9 9 9 9 10 10 10 10 10 9 9 10 11 12 12 12 12 11 10 7 6 8 11 12 12 13 13 15 16 16 15 15 15 14 12 10 7 5 7 12 16 17 18 20 22 22 22 22 22 23 23 24 24 23 22 22 22 22 22 22 22 22 23 23 23 24 24 25 25 25 25 24 24 24 24 25 25
8 9 9 9 9 9 9 10 10 10 10 10 11 11 12 12 11 11 10 10 10 11 12 13 13 13 13 13 13 13 15 16 15 14 14 15 16 16 16 15 15 15 15 14 14 13 11 12 16 21 22 22 21 21 21 21 21 21 21 22 23 24 23 22 22 22 23 23 23 23 24 24 24 24 24 25 25 25 24 24 23 23 23 23 24 24
10 9 10 10 10 11 11 11 11 11 12 12 12 13 13 13 13 12 11 11 11 12 12 13 14 14 13 13 14 16 17 16 15 13 13 14 15 15 16 16 16 16 15 15 15 15 16 18 19 20 21 22 22 20 20 20 20 20 20 20 21 22 23 23 23 23 24 24 25 25 25 25 25 25 25 24 24 24 23 23 22 22 22 22 23 24
11 11 11 11 12 13 13 13 13 13 13 13 13 14 14 14 14 13 13 13 13 13 13 14 14 15 15 14 15 16 17 16 15 14 13 15 16 16 16 16 15 15 15 15 15 14 15 18 19 19 19 21 22 22 19 18 18 18 19 19 20 22 23 24 24 25 25 25 26 25 25 26 25 25 25 24 23 23 23 23 23 23 23 24 24 25
12 12 12 13 14 15 15 15 15 15 15 15 15 15 15 15 15 15 15 15 15 15 15 16 16 16 17 17 18 18 19 19 18 16 15 16 16 17 16 16 16 15 15 15 15 15 15 17 19 20 19 18 19 20 20 19 18 18 19 20 21 22 23 24 24 25 26 26 25 25 25 25 25 25 24 24 24 24 24 24 25 25 25 25 25 25
12 13 14 15 15 16 16 16 15 15 15 15 16 16 16 16 16 17 17 17 16 16 16 17 17 18 18 19 20 20 20 21 20 19 18 18 18 18 18 18 17 16 15 15 16 16 16 17 18 19 18 17 16 18 20 20 20 20 21 21 22 23 23 24 24 24 24 25 25 24 24 24 24 24 25 25 25 25 25 25 25 25 25 25 25 25
13 14 15 15 16 16 16 15 15 15 15 16 16 16 16 16 16 17 17 17 16 16 17 17 17 18 18 18 19 20 21 22 22 21 21 20 20 20 20 20 19 18 17 17 17 17 17 16 14 12 14 17 18 19 20 21 21 22 22 23 23 23 23 22 22 22 23 23 24 24 24 24 25 25 26 26 26 26 26 26 26 25 25 25 25 26
14 14 15 15 15 15 15 15 15 15 15 15 15 15 15 15 16 15 15 15 16 16 16 16 17 17 18 19 19 20 21 22 22 22 22 21 21 21 21 21 21 20 19 19 18 18 18 17 15 13 14 16 19 21 21 21 21 22 24 25 24 23 22 21 21 21 22 24 25 25 25 25 25 26 26 26 26 26 26 26 26 26 25 25 26 27
15 15 15 15 14 14 14 14 14 15 15 15 15 15 14 14 14 14 14 14 15 15 15 16 16 17 17 18 19 19 20 21 21 21 21 20 20 20 21 21 21 20 20 20 19 19 18 18 18 19 19 18 19 21 22 22 22 22 23 23 23 23 23 22 22 23 24 24 24 24 25 25 25 25 24 25 25 26 26 26 26 26 26 26 26 27
15 15 15 15 14 14 14 14 15 14 14 14 14 14 14 14 14 14 14 14 15 15 15 15 16 17 17 18 19 19 19 19 19 19 20 20 20 20 20 21 21 21 20 20 20 20 19 19 19 20 20 20 21 22 23 23 23 23 23 22 24 26 26 25 24 23 23 23 23 24 24 25 25 25 25 25 26 26 26 27 27 28 27 27 26 27
16 16 16 15 15 15 15 15 15 14 14 14 14 14 14 14 14 14 14 15 15 15 15 15 16 17 18 19 19 18 18 18 18 18 18 18 18 19 19 20 21 21 21 20 20 20 19 19 19 20 20 20 20 21 23 24 24 23 22 22 25 27 27 26 23 21 21 22 23 24 24 24 25 25 26 26 26 27 27 27 27 28 27 27 27 27
16 16 17 16 16 16 15 15 14 14 14 14 14 14 14 14 14 14 15 15 15 14 14 15 16 17 18 19 19 18 17 16 16 16 16 16 16 17 18 19 20 21 21 21 20 20 20 20 19 20 20 20 20 21 22 24 25 24 23 23 23 23 21 24 24 23 23 23 24 24 24 24 25 26 27 27 28 28 28 27 27 27 27 27 27 27
17 17 17 16 16 15 15 15 14 14 14 14 14 15 15 15 15 15 15 15 15 15 15 16 16 17 17 17 17 17 17 16 15 14 14 15 15 16 17 18 18 19 20 21 20 20 20 20 20 20 20 20 21 22 23 24 25 25 24 23 23 22 22 24 26 26 26 25 25 25 25 25 26 28 28 29 28 28 27 27 27 27 27 27 27 28
17 16 15 15 14 14 14 14 15 15 15 15 15 16 16 15 15 16 15 15 15 15 15 16 16 15 15 16 16 16 17 16 16 15 14 14 14 14 15 16 17 18 19 20 20 20 20 20 20 21 20 20 21 22 23 24 25 25 25 24 23 23 25 26 26 25 25 26 26 26 26 27 27 28 29 29 29 28 28 27 27 28 28 27 27 28
16 15 15 15 14 14 15 15 15 15 15 15 16 16 15 15 15 15 15 15 15 16 16 16 15 14 14 15 16 16 16 17 17 16 16 15 15 15 15 16 17 17 18 19 20 21 21 21 21 22 22 21 22 23 23 23 24 24 25 25 24 24 25 25 25 24 25 25 26 27 27 27 27 28 28 29 30 30 29 28 28 28 28 28 28 28
16 16 16 16 16 16 16 16 16 16 16 16 16 16 15 15 15 15 15 16 16 16 16 15 15 14 15 15 16 16 16 17 17 17 17 16 16 16 16 16 17 18 18 20 21 22 23 23 23 23 22 22 22 23 24 24 23 23 24 24 24 24 25 25 25 25 25 25 26 27 28 28 27 27 28 30 30 31 30 29 28 27 27 28 28 29
17 17 17 17 17 17 17 17 16 16 16 16 16 16 16 15 15 16 16 16 16 16 15 15 14 15 15 16 16 16 16 17 17 17 17 17 17 17 17 17 18 18 19 19 20 21 22 23 23 23 23 23 23 24 25 25 23 23 23 23 23 24 25 26 26 26 25 26 27 27 27 27 27 27 29 30 31 30 30 29 28 27 27 27 27 28
18 17 17 17 17 17 17 17 16 16 16 17 17 16 16 16 16 16 16 17 16 16 15 15 15 15 15 16 17 17 17 17 18 18 17 17 17 17 18 18 18 18 19 19 19 20 21 21 22 23 23 24 25 26 26 26 25 24 24 23 23 24 25 26 27 27 26 26 27 27 27 27 27 27 28 28 29 30 31 30 29 28 27 26 26 27
18 18 17 17 16 16 16 16 16 16 16 16 16 16 16 16 16 16 17 17 16 16 16 15 15 15 16 16 17 17 17 17 17 17 17 17 17 17 17 18 18 18 18 17 17 17 17 19 20 20 20 21 23 24 25 25 25 24 24 23 23 24 24 26 26 27 26 26 27 28 28 28 28 27 26 26 27 28 30 30 30 29 27 26 26 27
19 18 17 17 16 16 16 16 16 16 16 16 16 16 16 15 15 15 16 16 16 16 16 16 16 16 16 17 17 17 17 17 17 17 17 18 18 17 17 17 17 16 15 14 14 14 14 15 15 17 18 16 16 18 21 22 23 23 23 23 23 23 23 24 25 26 26 27 27 28 28 28 27 26 24 24 25 26 27 29 30 30 29 27 27 28
Wind_Direction
213 216 225 233 238 241 245 254 256 255 254 251 243 237 238 240 239 239 240 242 245 248 249 250 249 249 247 246 244 242 242 242 242 244 246 249 252 256 259 262 264 266 267 268 269 270 271 272 274 275 276 277 278 278 278 278 277 275 274 273 272 271 272 272 271 269 269 270 271 271 272 272 272 271 271 270 270 271 271 272 272 272 273 273 273 274
219 221 222 224 227 228 227 238 243 244 246 246 242 237 234 232 234 236 238 240 242 244 246 248 249 249 249 248 247 245 244 244 245 247 250 253 256 259 262 264 265 267 268 269 270 271 273 274 276 277 278 279 279 279 279 278 277 275 274 273 272 271 271 271 271 270 269 269 269 269 269 268 268 268 268 268 269 270 271 271 272 272 272 273 273 274
214 216 213 214 215 216 214 219 223 227 234 240 242 239 235 232 233 236 239 240 242 243 244 246 247 249 249 249 248 247 247 247 249 252 255 258 261 263 264 265 267 268 269 270 272 274 275 276 277 278 279 280 279 279 279 278 277 276 276 275 274 273 272 271 271 271 270 269 268 268 267 267 266 267 268 269 270 271 272 272 272 272 272 273 273 273
210 205 202 206 209 211 211 211 213 215 220 227 235 240 239 236 236 239 242 244 245 246 247 248 250 252 253 254 254 253 253 254 256 259 262 263 265 266 267 268 269 270 272 274 275 277 278 279 279 280 280 280 279 279 278 278 277 277 276 276 275 274 274 273 272 272 271 270 269 269 269 269 269 270 271 271 272 272 272 273 273 273 273 274 274 273
198 196 198 207 213 216 221 220 222 225 228 228 231 235 239 239 241 244 247 249 250 252 254 256 258 260 262 263 263 263 264 265 266 267 268 268 268 269 270 272 273 275 276 278 279 279 279 280 280 280 280 280 279 278 278 277 277 276 276 275 275 274 274 273 272 272 271 271 271 271 271 272 272 273 273 273 273 273 273 273 273 274 274 274 274 274
176 194 211 223 231 238 241 238 238 240 241 238 238 239 242 245 248 251 253 256 258 261 263 265 267 268 270 272 273 274 274 274 273 273 272 271 271 272 274 276 277 279 280 281 281 281 281 281 281 281 281 281 280 279 278 278 277 276 275 275 274 273 273 272 272 271 271 271 271 272 272 273 273 273 273 273 273 272 272 272 273 273 274 275 275 275
179 214 239 247 258 267 271 264 256 250 243 239 242 246 250 253 255 258 261 266 269 271 273 273 273 273 275 277 279 281 281 279 278 275 274 273 274 276 278 280 282 283 284 284 284 283 283 283 283 283 282 282 281 281 280 279 278 277 276 275 274 273 272 272 271 271 271 271 271 271 271 272 272 272 272 272 272 272 272 272 273 273 273 274 275 275
176 205 231 238 257 275 282 277 263 247 234 232 239 248 250 252 255 258 265 272 275 275 274 273 274 275 277 281 283 283 283 282 281 279 279 280 281 283 285 287 287 286 285 284 284 283 283 283 283 282 282 282 281 280 280 279 278 278 277 276 275 274 273 272 271 271 270 270 270 270 270 270 271 271 271 272 272 272 272 273 273 273 273 273 274 274
166 176 198 214 232 246 250 258 242 209 190 196 232 258 253 247 246 250 258 262 266 268 265 260 260 265 273 279 281 280 280 281 282 283 285 287 289 291 292 291 289 287 285 283 282 281 281 281 281 281 281 281 281 280 280 279 278 278 277 276 275 274 273 272 271 271 271 271 270 270 270 270 270 270 271 271 272 272 272 273 273 273 273 273 273 273
158 162 169 173 207 237 228 228 216 189 169 173 192 226 244 241 237 237 240 246 251 257 256 252 252 258 265 270 271 270 271 273 277 281 284 286 288 289 290 289 287 287 286 286 285 284 283 283 283 283 283 283 283 282 282 281 280 280 278 277 276 274 273 272 272 272 272 271 271 271 271 271 271 271 271 271 272 272 272 273 273 273 273 273 273 273
139 152 156 157 171 212 244 248 226 199 183 185 194 205 212 220 229 232 230 236 244 250 251 251 254 259 263 263 263 264 265 267 271 275 279 279 280 280 282 283 284 286 289 290 290 289 289 289 290 290 290 289 288 287 286 285 284 283 282 280 278 276 275 273 273 272 272 272 272 272 272 272 272 272 272 272 272 272 273 273 273 273 273 274 274 274
148 157 167 173 183 204 232 254 249 223 206 207 213 220 219 217 221 226 228 230 235 244 250 254 257 262 266 270 270 270 271 270 270 272 274 275 276 277 280 283 286 289 291 292 293 294 296 297 298 298 297 295 294 292 291 290 288 287 285 283 281 280 278 276 275 274 274 273 273 273 273 273 273 273 273 273 274 273 274 274 274 274 274 274 275 275
165 174 183 192 205 217 231 244 246 233 219 218 226 234 233 227 225 227 230 233 239 249 260 265 264 265 270 277 280 280 279 276 274 273 273 273 277 282 287 290 292 294 296 296 297 298 300 301 301 299 297 296 294 293 291 290 289 288 286 285 283 282 280 279 278 276 276 275 275 275 275 275 275 275 275 275 275 275 275 275 276 275 275 275 275 275
186 191 193 198 211 225 237 244 241 229 224 221 225 229 229 233 236 241 249 256 262 267 273 278 277 277 280 284 285 283 280 276 274 272 272 275 281 289 295 297 298 298 298 297 295 297 299 300 299 297 295 293 292 291 290 290 289 288 287 285 284 283 281 280 279 279 278 277 277 277 276 276 276 276 277 277 277 277 277 277 277 277 276 276 276 276
203 202 203 209 217 225 232 237 238 232 219 210 212 222 232 248 264 276 284 287 286 283 282 284 287 288 288 286 282 277 272 269 268 269 274 280 287 294 299 300 298 295 294 292 292 294 297 297 296 295 294 292 291 291 291 291 290 289 288 286 284 283 281 280 280 279 279 278 278 278 277 277 277 278 278 278 278 278 278 278 278 277 277 277 277 276
217 214 223 233 234 226 218 220 214 196 181 188 199 215 255 304 304 302 304 300 295 292 293 299 301 298 292 285 277 270 266 264 267 274 283 289 292 295 299 298 293 289 289 289 291 294 296 297 296 296 295 294 293 293 293 292 291 290 288 286 284 282 281 280 280 280 279 279 279 279 279 279 279 279 279 279 279 279 279 279 279 278 278 278 277 277
324 297 300 302 296 171 167 172 169 165 180 201 220 240 259 276 283 283 283 285 289 292 294 299 306 307 299 291 285 279 278 281 286 292 295 296 296 296 298 296 292 289 290 291 293 295 298 299 299 299 298 297 297 296 295 293 292 290 287 285 284 282 282 281 281 281 281 280 280 281 281 280 280 281 281 280 280 281 281 280 280 280 279 279 278 278
356 343 334 349 19 74 139 164 191 225 241 253 267 279 283 282 281 281 282 284 286 286 288 289 285 285 296 305 308 310 312 312 310 306 302 298 297 297 298 297 294 291 291 292 295 297 300 301 302 302 301 300 298 297 295 293 291 289 287 285 284 284 283 283 283 282 282 282 282 282 282 281 281 281 281 281 281 282 282 281 281 281 280 279 279 278
356 335 327 338 348 346 286 266 269 274 281 288 299 306 311 307 303 300 294 290 284 279 277 278 278 279 283 292 301 309 315 316 313 308 301 296 295 296 298 297 294 292 292 292 295 298 301 302 303 302 301 299 297 294 292 290 288 287 286 286 286 285 285 284 284 283 282 282 283 282 282 282 282 281 281 282 282 282 282 282 281 281 280 279 279 279
3 339 317 317 321 324 308 293 284 281 279 284 292 298 303 306 303 295 289 287 284 282 282 281 281 282 284 287 292 296 300 302 305 305 300 295 293 294 295 296 295 294 293 292 295 299 300 300 300 299 298 296 294 292 290 289 288 287 287 287 287 286 286 285 284 283 283 282 282 282 283 283 283 282 282 282 282 282 282 282 282 281 280 280 279 279
12 8 358 327 324 10 76 93 151 197 220 251 257 254 259 274 282 285 288 290 293 295 296 298 299 298 296 294 290 286 286 293 300 303 299 294 291 290 293 295 296 295 292 293 295 297 296 295 294 293 292 291 291 290 289 288 288 288 288 288 288 287 287 286 285 284 284 283 282 283 283 284 284 284 284 283 283 282 282 283 282 282 281 280 280 279
13 15 18 13 81 101 109 128 160 202 231 250 252 249 255 267 278 287 291 296 302 306 307 307 302 296 293 291 287 283 283 288 292 295 294 292 288 288 293 297 296 292 288 289 292 294 293 292 291 289 288 287 287 287 287 287 287 288 288 288 289 289 288 288 286 285 284 283 283 282 283 283 283 284 284 284 284 284 283 283 283 282 282 281 281 280
333 347 350 317 221 181 170 175 197 225 249 253 249 250 257 265 275 285 291 295 297 298 298 295 292 291 290 289 288 290 293 295 293 289 286 283 284 289 294 297 293 288 285 287 291 294 294 294 292 291 290 289 288 288 287 288 288 288 289 289 290 289 289 288 287 286 285 284 283 282 282 282 282 283 284 284 284 284 283 283 283 283 282 282 281 281
273 287 293 278 252 235 230 226 230 239 251 249 248 251 259 267 276 284 290 294 295 296 296 295 294 293 292 294 297 300 303 305 299 289 278 275 280 287 293 295 292 289 288 290 293 296 296 296 295 295 294 293 291 290 289 289 289 289 290 290 290 290 289 288 287 286 285 284 283 283 283 282 283 283 284 284 283 283 283 283 283 283 283 283 282 282
254 261 266 265 258 251 247 249 255 260 265 268 270 272 276 281 287 292 296 299 301 301 300 295 291 291 295 299 299 299 301 304 299 289 278 279 284 288 292 293 293 292 292 294 296 298 298 297 296 296 295 293 291 290 290 290 291 291 291 291 291 290 290 288 288 287 286 285 285 285 284 284 284 284 284 284 284 284 284 284 284 283 283 283 283 282
251 255 259 261 262 261 260 263 267 273 278 281 284 288 291 294 296 297 296 297 300 299 295 289 286 290 297 300 299 297 300 302 299 292 285 286 289 291 292 294 294 294 294 296 298 299 298 296 295 294 293 292 291 292 292 293 293 293 293 292 291 291 290 290 289 289 288 288 288 287 287 286 286 286 285 285 285 285 284 284 284 284 284 284 284 283
258 259 262 264 266 268 270 272 275 278 282 284 287 291 294 295 294 293 292 293 294 294 290 288 291 297 299 299 296 297 300 301 296 290 288 289 289 289 290 294 296 297 297 298 299 298 297 294 292 292 292 293 295 296 296 296 295 293 290 288 287 287 287 288 288 288 288 288 288 288 288 287 287 286 286 286 285 285 285 285 285 285 285 285 285 284
266 265 265 267 269 270 272 273 275 276 277 278 279 280 281 282 283 282 281 284 288 289 289 290 294 297 298 296 296 297 299 297 294 292 292 287 283 283 287 294 298 300 301 301 300 299 295 291 290 292 294 297 300 300 297 292 286 282 280 279 279 281 283 285 286 287 288 288 288 288 288 288 287 287 287 286 286 286 286 286 287 287 287 286 285 284
283 278 273 272 272 273 273 273 273 273 272 272 271 270 267 269 269 269 270 274 278 279 281 282 284 287 290 294 297 299 298 295 297 301 302 289 280 281 289 296 300 303 306 307 306 303 297 293 292 294 297 300 299 294 287 281 277 275 277 278 281 284 287 288 290 290 290 290 290 289 288 288 288 288 287 287 288 288 288 288 289 289 288 287 285 284
300 295 291 288 286 284 282 280 279 278 274 270 266 265 264 266 267 267 266 264 264 266 269 272 275 280 288 296 301 301 299 301 312 322 317 301 290 289 296 300 302 305 309 312 312 307 301 298 297 297 296 293 288 283 281 281 281 283 285 287 290 291 293 294 294 292 291 290 289 289 288 288 289 289 289 289 289 289 289 290 290 290 289 287 286 284
294 293 292 293 292 291 288 285 283 280 275 268 264 265 269 273 275 273 268 259 255 257 261 265 271 278 285 294 300 300 295 302 312 322 318 309 300 296 300 301 301 303 307 310 313 313 306 305 303 299 295 291 289 287 288 289 290 292 293 295 296 296 296 295 294 293 291 290 290 290 290 290 290 290 291 291 291 291 290 291 291 290 289 287 286 284
284 284 285 288 288 286 284 281 277 273 268 264 263 267 273 278 280 277 269 259 254 255 259 265 271 276 280 280 279 277 282 291 298 305 309 305 299 296 297 298 299 300 302 300 296 292 298 300 300 300 299 297 295 295 294 294 295 296 296 296 296 295 296 296 295 294 293 292 292 292 292 292 292 292 291 291 291 291 291 290 290 289 288 286 285 284
276 277 279 280 281 279 277 274 272 269 267 264 264 268 273 277 278 276 270 264 259 259 262 267 272 275 277 276 274 275 279 285 291 298 302 300 297 295 295 296 297 298 299 296 290 284 281 284 293 298 299 298 297 297 296 296 295 295 295 295 295 296 297 297 297 296 295 295 294 294 293 292 292 292 292 291 291 290 290 289 288 287 286 285 285 285
268 269 272 273 275 275 273 271 269 268 268 268 267 269 272 273 273 271 267 263 261 261 262 264 268 271 274 276 277 277 279 283 289 295 298 298 297 295 295 295 295 296 298 296 292 287 283 284 289 295 298 299 298 296 296 295 295 296 296 296 296 297 298 298 297 296 296 295 295 294 294 293 293 293 292 292 291 290 289 289 288 286 285 284 285 286
259 260 265 271 274 274 273 270 268 267 267 268 269 270 270 270 268 266 264 263 261 261 261 262 263 266 268 272 276 279 281 284 289 293 295 294 295 295 295 292 292 293 295 294 293 292 290 289 290 293 296 299 299 298 296 296 297 298 297 296 295 295 296 296 296 296 295 295 295 295 295 295 295 294 294 293 292 291 290 289 288 287 286 284 284 284
259 261 268 273 275 274 272 269 266 266 266 267 269 270 270 270 268 266 265 266 265 264 264 265 266 266 267 268 270 274 279 284 288 291 291 290 290 291 290 288 288 290 291 291 290 291 291 292 293 293 294 296 298 299 299 300 300 300 298 297 296 295 295 295 295 296 295 295 295 295 296 296 296 295 294 293 293 291 290 289 288 287 286 285 283 281
267 269 272 274 274 272 268 265 263 263 265 267 269 271 270 270 268 267 267 268 269 269 269 270 270 270 270 270 270 272 277 283 287 288 288 287 286 286 285 284 285 286 286 287 289 291 292 293 294 294 293 291 293 297 301 304 305 303 300 300 299 298 297 297 297 296 295 295 295 295 296 296 296 295 294 293 293 292 290 289 288 287 286 284 282 280
269 270 270 270 268 265 261 259 260 262 265 269 271 271 271 270 270 269 269 269 269 270 270 272 272 272 271 271 272 273 277 280 283 284 284 283 283 282 282 282 282 282 281 281 284 287 290 291 293 295 294 292 292 294 298 303 305 304 302 302 301 299 298 298 299 299 297 296 296 296 295 295 295 294 294 294 293 293 291 290 289 288 287 285 284 281
263 263 263 264 262 259 256 257 260 264 268 270 272 273 272 272 270 269 267 267 267 268 269 270 272 272 273 274 275 276 278 280 281 282 282 281 279 278 278 279 279 279 279 278 279 281 283 284 285 288 291 294 295 296 298 300 301 303 304 305 304 302 300 301 301 300 299 297 297 296 295 295 295 295 294 294 293 293 292 291 290 290 289 288 286 284
258 259 260 261 261 260 260 262 265 269 272 273 274 274 272 268 265 263 262 263 265 267 269 272 274 275 276 278 280 281 282 283 284 284 284 282 281 278 276 275 275 277 279 278 277 276 276 277 279 281 284 288 292 295 297 298 299 301 305 306 305 303 303 303 302 300 299 298 297 296 296 297 296 295 293 293 292 291 290 290 290 289 289 287 286 286
255 257 260 261 262 263 265 267 270 272 273 273 272 269 264 261 259 259 261 264 267 269 271 274 277 279 281 282 283 283 284 285 286 286 286 286 285 283 279 275 275 276 277 277 277 275 273 274 276 279 281 284 288 291 293 294 296 299 301 301 300 300 302 302 301 300 300 299 298 297 297 297 296 295 293 292 291 290 290 289 289 288 288 286 284 283
254 256 258 260 261 263 265 267 270 272 272 270 267 263 258 256 257 261 265 267 268 269 272 276 280 284 286 286 285 285 285 286 286 286 287 286 286 284 282 279 277 276 276 275 275 274 272 272 274 277 279 283 286 289 291 293 295 296 296 296 298 301 302 301 301 301 301 300 300 299 297 296 295 294 294 293 292 291 291 289 288 287 286 285 282 280
255 257 259 261 263 264 265 267 267 268 267 264 261 259 257 258 260 263 265 265 266 269 274 278 283 285 286 286 287 288 288 287 287 287 287 287 287 286 285 283 281 279 277 274 273 274 274 274 273 274 277 281 284 286 288 291 294 295 294 295 297 301 301 301 301 302 302 300 299 298 297 296 295 295 295 294 293 293 292 290 288 286 284 283 281 279
257 259 261 263 265 266 266 265 265 264 263 261 259 259 260 262 263 264 263 263 266 270 275 280 284 285 284 285 287 290 292 292 292 291 290 289 289 289 288 287 286 283 280 274 271 273 277 277 277 277 280 281 282 283 285 288 291 293 293 294 294 293 291 294 298 301 301 300 298 297 296 296 297 297 296 295 294 293 292 291 289 287 285 283 281 280
257 259 261 262 263 264 263 263 263 263 262 261 260 261 263 264 263 262 260 262 266 271 275 281 284 285 284 285 288 292 296 297 297 296 294 292 290 289 289 288 288 286 283 277 274 273 275 278 280 283 284 282 281 280 282 285 289 291 292 292 292 290 288 290 293 296 297 297 297 297 297 298 299 299 298 297 296 294 293 291 290 288 286 284 282 280
256 258 261 263 264 264 265 265 265 264 263 262 261 262 263 263 262 260 261 263 268 272 276 279 280 280 281 285 290 294 298 299 299 299 298 297 295 293 291 289 288 286 284 281 278 275 274 275 279 283 286 285 283 281 280 282 286 288 290 292 292 291 290 291 291 292 293 294 295 297 298 300 300 299 298 297 297 295 293 291 289 287 286 285 283 281
256 260 262 265 266 267 267 266 266 264 263 262 262 263 263 262 262 262 264 267 269 272 275 277 275 274 276 283 288 293 296 298 299 299 299 299 299 297 296 294 291 289 286 284 282 279 277 276 276 278 282 284 285 284 283 282 283 285 287 290 291 291 291 291 291 292 292 293 294 296 299 301 302 300 299 298 297 296 293 291 289 286 285 284 283 281
257 260 262 265 266 266 266 265 264 262 262 262 263 264 264 263 264 265 266 268 270 271 272 273 273 274 277 281 286 289 292 294 295 297 298 299 299 299 298 297 296 294 290 287 284 282 279 277 276 276 276 278 280 282 283 283 282 282 284 286 288 289 289 290 291 293 293 293 294 296 299 300 300 300 300 300 298 295 293 292 290 287 285 283 282 281
256 259 261 263 265 265 264 263 262 261 261 262 264 265 265 265 265 265 266 268 269 269 268 269 272 275 278 282 285 288 289 290 292 293 295 297 299 300 300 300 298 296 294 291 288 285 283 281 279 276 273 272 272 274 278 280 281 281 282 283 285 286 287 289 292 294 295 296 297 298 299 298 298 298 298 297 295 294 293 292 291 289 287 284 282 280
255 257 260 262 264 265 266 265 263 261 262 263 264 265 266 267 267 267 268 268 267 266 266 267 271 275 279 282 285 288 289 289 290 291 293 295 297 299 299 299 299 298 297 295 293 292 291 291 288 283 277 271 267 268 271 276 280 282 282 282 283 285 287 290 292 295 297 298 299 299 299 299 298 297 296 294 292 291 292 292 291 290 288 287 284 282
255 256 259 262 265 267 268 268 267 265 265 265 265 266 267 268 268 269 269 267 266 266 267 268 271 274 277 281 284 286 287 287 288 289 291 294 296 296 296 296 297 297 297 298 300 302 302 301 299 295 290 280 270 266 269 275 281 285 286 286 287 288 290 292 294 296 298 299 299 300 300 299 298 296 293 291 291 291 292 292 291 291 290 290 288 286